Norwood, MA

1:42 PM EDT on March 24, 2017 (GMT -0400)
Norwood Memorial

Weather History for KOWD - October, 2012

Change the Weather History Date:

Sunday, October 7, 2012

  Actual Average Record
Temperature  
Mean Temperature 48 °F -  
Max Temperature 60 °F 63 °F 81 °F (2005)
Min Temperature 37 °F 39 °F 26 °F (1999)
Degree Days  
Heating Degree Days 17    
Moisture  
Dew Point 41 °F    
Average Humidity 83    
Maximum Humidity 93    
Minimum Humidity 47    
Precipitation  
Precipitation 0.09 in - - ()
Sea Level Pressure  
Sea Level Pressure 30.01 in    
Wind  
Wind Speed 1 mph (West)    
Max Wind Speed 7 mph    
Max Gust Speed -    
Visibility 5 miles    
Events Fog , Rain    
Averages and records for this station are not official NWS values.
T = Trace of Precipitation, MM = Missing Value Source: NWS Daily Summary

Daily Weather History Graph

Daily Weather History Graph

Search for Another Location

Airport or City:

Trip Planner

Search our weather history database for the weather conditions in past years. The results will help you decide how hot, cold, wet, or windy it might be!

Date:

Astronomy

Oct. 07, 2012 Rise Set
Actual Time 6:48 AM EDT 6:15 PM EDT
Civil Twilight 6:20 AM EDT 6:43 PM EDT
Nautical Twilight 5:48 AM EDT 7:15 PM EDT
Astronomical Twilight 5:15 AM EDT 7:48 PM EDT
Moon 11:19 PM EDT (10/7) 1:28 PM EDT (10/7)
Length of Visible Light 12h 22m
Length of Day
11h 26m
Waning Gibbous, 56% of the Moon is Illuminated
Oct 7
Waning Gibbous
Oct 8
Last Quarter
Oct 15
New
Oct 21
First Quarter
Oct 29
Full

Hourly Weather History & Observations

Time (EDT) Temp. Dew Point Humidity Pressure Visibility Wind Dir Wind Speed Gust Speed Precip Events Conditions
12:53 AM 45.0 °F 42.1 °F 90% 29.95 in 10.0 mi Calm Calm - N/A   Clear
1:51 AM 42.8 °F 41.0 °F 93% 29.97 in 1.8 mi Calm Calm - N/A   Clear
1:53 AM 42.1 °F 39.9 °F 92% 29.97 in 1.2 mi Calm Calm - N/A   Clear
2:02 AM 42.8 °F 39.2 °F 87% 29.97 in 0.5 mi Calm Calm - N/A Fog Fog
2:49 AM 42.8 °F 39.2 °F 87% 29.97 in 0.5 mi Calm Calm - N/A Fog Fog
2:53 AM 41.0 °F 39.0 °F 93% 29.97 in 0.8 mi Calm Calm - N/A   Mist
2:57 AM 41.0 °F 37.4 °F 87% 29.97 in 1.2 mi Calm Calm - N/A   Partly Cloudy
2:59 AM 41.0 °F 37.4 °F 87% 29.97 in 0.8 mi Calm Calm - N/A   Mist
3:09 AM 42.8 °F 39.2 °F 87% 29.98 in 1.5 mi Calm Calm - N/A   Partly Cloudy
3:11 AM 42.8 °F 39.2 °F 87% 29.98 in 3.0 mi Calm Calm - N/A   Partly Cloudy
3:32 AM 39.2 °F 37.4 °F 93% 29.98 in 1.8 mi Calm Calm - N/A   Partly Cloudy
3:35 AM 39.2 °F 37.4 °F 93% 29.98 in 0.8 mi Calm Calm - N/A   Mist
3:53 AM 42.1 °F 39.0 °F 89% 29.99 in 0.8 mi Calm Calm - N/A   Mist
4:31 AM 39.2 °F 37.4 °F 93% 29.99 in 1.0 mi Calm Calm - N/A   Mist
4:39 AM 41.0 °F 37.4 °F 87% 30.00 in 2.0 mi Calm Calm - N/A   Partly Cloudy
4:46 AM 39.2 °F 37.4 °F 93% 30.00 in 1.0 mi Calm Calm - N/A   Mist
4:53 AM 39.9 °F 37.9 °F 93% 30.00 in 0.5 mi Calm Calm - N/A Fog Fog
4:59 AM 39.2 °F 37.4 °F 93% 30.00 in 1.2 mi Calm Calm - N/A   Partly Cloudy
5:04 AM 39.2 °F 37.4 °F 93% 30.00 in 4.0 mi Calm Calm - N/A   Clear
5:53 AM 41.0 °F 37.9 °F 89% 30.01 in 10.0 mi Calm Calm - N/A   Clear
6:15 AM 37.4 °F 35.6 °F 93% 30.02 in 1.8 mi Calm Calm - N/A   Clear
6:19 AM 39.2 °F 37.4 °F 93% 30.02 in 0.8 mi Calm Calm - N/A   Mist
6:33 AM 39.2 °F 37.4 °F 93% 30.03 in 1.2 mi Calm Calm - N/A   Partly Cloudy
6:36 AM 39.2 °F 37.4 °F 93% 30.03 in 3.0 mi Calm Calm - N/A   Partly Cloudy
6:53 AM 39.9 °F 37.0 °F 89% 30.04 in 4.0 mi Calm Calm - N/A   Clear
7:53 AM 44.1 °F 42.1 °F 93% 30.06 in 10.0 mi Calm Calm - N/A   Clear
8:53 AM 53.1 °F 43.0 °F 69% 30.06 in 10.0 mi Calm Calm - N/A   Clear
9:53 AM 55.9 °F 43.0 °F 62% 30.06 in 10.0 mi Calm Calm - N/A   Clear
10:53 AM 57.0 °F 41.0 °F 55% 30.05 in 10.0 mi West 4.6 mph - N/A   Clear
11:53 AM 59.0 °F 39.9 °F 49% 30.05 in 10.0 mi Variable 3.5 mph - N/A   Clear
12:53 PM 59.0 °F 41.0 °F 51% 30.05 in 10.0 mi NW 5.8 mph - N/A   Overcast
1:53 PM 57.9 °F 37.9 °F 47% 30.04 in 10.0 mi NW 5.8 mph - N/A   Mostly Cloudy
2:53 PM 57.0 °F 41.0 °F 55% 30.05 in 10.0 mi WSW 4.6 mph - 0.00 in   Overcast
3:53 PM 55.0 °F 48.9 °F 80% 30.04 in 10.0 mi Calm Calm - 0.01 in Rain Light Rain
4:53 PM 53.1 °F 48.0 °F 83% 30.02 in 10.0 mi SSE 4.6 mph - 0.01 in   Mostly Cloudy
5:53 PM 53.1 °F 48.0 °F 83% 30.04 in 10.0 mi Calm Calm - N/A   Overcast
6:53 PM 52.0 °F 46.9 °F 83% 30.03 in 10.0 mi Calm Calm - N/A   Overcast
8:53 PM 52.0 °F 46.9 °F 83% 30.02 in 10.0 mi WSW 3.5 mph - N/A   Overcast
9:53 PM 52.0 °F 48.0 °F 86% 30.04 in 10.0 mi Calm Calm - 0.01 in Rain Light Rain
10:53 PM 51.1 °F 46.0 °F 83% 30.06 in 6.0 mi West 5.8 mph - 0.03 in Rain Light Rain
11:53 PM 50.0 °F 45.0 °F 83% 30.06 in 10.0 mi WNW 6.9 mph - 0.03 in   Overcast